This is the latest recevied weather packets stored in our database for station/object PA3BWK. If no packets are shown the sender has not sent any weather packets the latest 10 day(s).
| Time | Temp. | Humidity | Pressure | Rain* | Wind** | Luminosity | Snow |
|---|---|---|---|---|---|---|---|
| 1787839042 | 26.11° C | 65% | 1009.9 hPa | 0 mm | - | 49 W/m² | - |
| 1787838979 | 26.11° C | 65% | 1009.8 hPa | 0 mm | - | 65 W/m² | - |
| 1787838919 | 26.11° C | 65% | 1009.8 hPa | 0 mm | - | 69 W/m² | - |
| 1787838859 | 26.11° C | 64% | 1009.9 hPa | 0 mm | - | 69 W/m² | - |
| 1787838800 | 26.11° C | 64% | 1009.9 hPa | 0 mm | - | 70 W/m² | - |
| 1787838748 | 26.11° C | 65% | 1009.9 hPa | 0 mm | - | 70 W/m² | - |
| 1787838680 | 26.11° C | 65% | 1009.8 hPa | 0 mm | - | 70 W/m² | - |
| 1787838620 | 26.11° C | 64% | 1009.9 hPa | 0 mm | - | 70 W/m² | - |
| 1787838558 | 26.11° C | 64% | 1009.9 hPa | 0 mm | - | 72 W/m² | - |
| 1787838498 | 26.11° C | 65% | 1009.9 hPa | 0 mm | - | 78 W/m² | - |
| 1787838438 | 26.11° C | 64% | 1009.8 hPa | 0 mm | - | 83 W/m² | - |
| 1787838379 | 25.56° C | 65% | 1009.9 hPa | 0 mm | - | 88 W/m² | - |
| 1787838319 | 25.56° C | 65% | 1009.9 hPa | 0 mm | - | 93 W/m² | - |
| 1787838258 | 25.56° C | 65% | 1009.8 hPa | 0 mm | - | 99 W/m² | - |
| 1787838202 | 25.56° C | 66% | 1009.9 hPa | 0 mm | - | 92 W/m² | - |
| 1787838139 | 25.56° C | 66% | 1009.9 hPa | 0 mm | - | 118 W/m² | - |
| 1787838080 | 25.56° C | 66% | 1009.9 hPa | 0 mm | - | 137 W/m² | - |
| 1787838019 | 25.56° C | 65% | 1009.8 hPa | 0 mm | - | 144 W/m² | - |
| 1787837958 | 25.56° C | 66% | 1009.7 hPa | 0 mm | - | 155 W/m² | - |
| 1787837898 | 25.56° C | 66% | 1009.8 hPa | 0 mm | - | 155 W/m² | - |
| 1787837840 | 25.56° C | 67% | 1009.7 hPa | 0 mm | - | 162 W/m² | - |
| 1787837779 | 25.56° C | 67% | 1009.7 hPa | 0 mm | - | 167 W/m² | - |
| 1787837718 | 25.56° C | 67% | 1009.7 hPa | 0 mm | - | 137 W/m² | - |
| 1787837655 | 25.56° C | 67% | 1009.5 hPa | 0 mm | - | 128 W/m² | - |
| 1787837596 | 25.56° C | 67% | 1009.6 hPa | 0 mm | - | 153 W/m² | - |
* Rain latest hour (hover to see other rain measurements)
** Current wind speed in m/s (hover to see current wind gust speed)